UAE9LT OMDB-LIMC

Flight info

Callsign UAE9LT
Flight time N/A
Altitude 37000
Route ANVIX7F ANVIX L223 TARDI N629 BOTAM Y855 LAKLU/N0495F360 Q204 NALKI G652 DATBU/N0499F380 G652 TOKRA DCT ALROK DCT BOSOB DCT ITRUX Y511 PMA Z712 WEJ L677 GESON Q777 SENTO/N0490F400 Q777 RASDA DCT OTHON DCT VAXOS DCT RDS UL609 MES DCT FSK DCT DISOR DCT LONTA UL608 DOLEV DCT VRANA DCT BAXON/N0488F410 DCT LOMED/N0363F180 M730 MIVKI T648 MEBUR MEBUR3E
Aircraft A388/J-V/N

Departure

Time N/A
Airport Dubai International Airport (OMDB)

Arrival

Time 2026-05-06 21:01
Airport Milan Malpensa International Airport (LIMC)
Time Latitude Longitude Altitude Speed Heading
2026-05-06 16:23 22.82551 56.91248 36882 ft 480 kts 224°
2026-05-06 16:23 22.80281 56.88613 36880 ft 477 kts 234°
2026-05-06 16:23 22.77006 56.82402 36872 ft 475 kts 244°
2026-05-06 16:24 22.73960 56.76051 36866 ft 475 kts 243°
2026-05-06 16:24 22.70900 56.69704 36858 ft 475 kts 243°
2026-05-06 16:25 22.67842 56.63363 36857 ft 475 kts 243°
2026-05-06 16:25 22.64783 56.57022 36832 ft 475 kts 243°
2026-05-06 16:26 22.62236 56.51750 36822 ft 476 kts 243°
2026-05-06 16:26 22.59168 56.45407 36827 ft 476 kts 243°
2026-05-06 16:27 22.56091 56.39053 36826 ft 477 kts 243°
2026-05-06 16:27 22.53010 56.32696 36825 ft 477 kts 243°
2026-05-06 16:28 22.51466 56.29506 37035 ft 480 kts 243°
2026-05-06 16:28 22.49919 56.26315 37480 ft 477 kts 243°
2026-05-06 16:28 22.48378 56.23139 37781 ft 479 kts 243°
2026-05-06 16:28 22.46829 56.19947 37825 ft 476 kts 243°
2026-05-06 16:29 22.43769 56.13651 37822 ft 473 kts 243°
2026-05-06 16:29 22.40698 56.07337 37820 ft 474 kts 243°
2026-05-06 16:30 22.38144 56.02094 37820 ft 474 kts 243°
2026-05-06 16:30 22.34539 55.94733 37813 ft 474 kts 243°
2026-05-06 16:31 22.31446 55.88444 37807 ft 474 kts 243°
2026-05-06 16:31 22.28349 55.82149 37807 ft 475 kts 243°
2026-05-06 16:32 22.25249 55.75853 37789 ft 475 kts 243°
2026-05-06 16:32 22.22159 55.69557 37786 ft 475 kts 243°
2026-05-06 16:33 22.19065 55.63255 37783 ft 475 kts 243°
2026-05-06 16:34 22.15580 55.53312 37795 ft 474 kts 259°
2026-05-06 16:34 22.14869 55.46244 37791 ft 474 kts 265°
2026-05-06 16:35 22.14296 55.39200 37794 ft 475 kts 264°
2026-05-06 16:35 22.13708 55.32108 37790 ft 475 kts 264°
2026-05-06 16:36 22.13120 55.25015 37788 ft 475 kts 264°
2026-05-06 16:36 22.12530 55.17922 37784 ft 475 kts 264°
2026-05-06 16:37 22.11937 55.10824 37789 ft 475 kts 264°
2026-05-06 16:37 22.11340 55.03727 37780 ft 475 kts 264°
2026-05-06 16:38 22.10741 54.96634 37789 ft 475 kts 264°
2026-05-06 16:38 22.10138 54.89543 37786 ft 475 kts 264°
2026-05-06 16:39 22.09533 54.82452 37785 ft 475 kts 264°
2026-05-06 16:39 22.08924 54.75358 37788 ft 475 kts 264°
2026-05-06 16:40 22.08312 54.68264 37789 ft 475 kts 264°
2026-05-06 16:40 22.07697 54.61166 37770 ft 475 kts 264°
2026-05-06 16:41 22.07079 54.54074 37769 ft 475 kts 264°
2026-05-06 16:41 22.06457 54.46979 37768 ft 475 kts 264°
2026-05-06 16:42 22.05833 54.39885 37771 ft 475 kts 264°
2026-05-06 16:42 22.05206 54.32794 37782 ft 475 kts 264°
2026-05-06 16:43 22.04575 54.25699 37779 ft 475 kts 264°
2026-05-06 16:43 22.03942 54.18608 37779 ft 475 kts 264°
2026-05-06 16:44 22.03305 54.11520 37775 ft 475 kts 264°
2026-05-06 16:44 22.02666 54.04427 37774 ft 475 kts 264°
2026-05-06 16:45 22.02027 53.97386 37794 ft 475 kts 264°
2026-05-06 16:45 22.01382 53.90301 37788 ft 475 kts 264°
2026-05-06 16:46 22.00735 53.83231 37768 ft 474 kts 264°
2026-05-06 16:46 22.00086 53.76168 37767 ft 473 kts 264°
2026-05-06 16:47 21.99435 53.69116 37763 ft 473 kts 263°
2026-05-06 16:47 21.98781 53.62073 37763 ft 472 kts 263°
2026-05-06 16:48 21.98124 53.55036 37759 ft 472 kts 263°
2026-05-06 16:48 21.97465 53.48001 37756 ft 472 kts 263°
2026-05-06 16:49 21.96803 53.40965 37755 ft 472 kts 263°
2026-05-06 16:49 21.96137 53.33927 37754 ft 472 kts 263°
2026-05-06 16:50 21.95469 53.26888 37757 ft 473 kts 263°
2026-05-06 16:50 21.94801 53.19890 37755 ft 473 kts 263°
2026-05-06 16:51 21.94125 53.12844 37759 ft 473 kts 263°
2026-05-06 16:51 21.93446 53.05793 37760 ft 473 kts 263°
2026-05-06 16:52 21.92764 52.98744 37755 ft 473 kts 263°
2026-05-06 16:52 21.92079 52.91698 37752 ft 473 kts 263°
2026-05-06 16:53 21.91391 52.84645 37756 ft 473 kts 263°
2026-05-06 16:53 21.90701 52.77598 37759 ft 473 kts 263°
2026-05-06 16:54 21.90341 52.70525 37750 ft 474 kts 272°
2026-05-06 16:54 21.91283 52.63497 37753 ft 475 kts 280°
2026-05-06 16:55 21.92579 52.56515 37783 ft 475 kts 279°
2026-05-06 16:55 21.93857 52.49534 37762 ft 475 kts 279°
2026-05-06 16:56 21.95136 52.42560 37758 ft 474 kts 279°
2026-05-06 16:56 21.96411 52.35596 37759 ft 474 kts 279°
2026-05-06 16:57 21.97681 52.28634 37750 ft 473 kts 279°
2026-05-06 16:57 21.98946 52.21680 37747 ft 473 kts 279°
2026-05-06 16:58 22.00207 52.14729 37754 ft 473 kts 279°
2026-05-06 16:58 22.01466 52.07775 37752 ft 473 kts 279°
2026-05-06 16:59 22.02722 52.00823 37755 ft 473 kts 279°
2026-05-06 16:59 22.03973 51.93877 37772 ft 472 kts 279°
2026-05-06 17:00 22.05219 51.86942 37769 ft 471 kts 279°
2026-05-06 17:00 22.06460 51.80017 37766 ft 470 kts 279°
2026-05-06 17:01 22.07688 51.73147 37761 ft 470 kts 279°
2026-05-06 17:01 22.08921 51.66234 37758 ft 469 kts 279°
2026-05-06 17:02 22.10150 51.59327 37760 ft 469 kts 279°
2026-05-06 17:02 22.11376 51.52416 37759 ft 469 kts 279°
2026-05-06 17:03 22.12599 51.45505 37758 ft 469 kts 279°
2026-05-06 17:03 22.13819 51.38594 37780 ft 469 kts 279°
2026-05-06 17:04 22.15035 51.31688 37777 ft 468 kts 278°
2026-05-06 17:04 22.16247 51.24786 37776 ft 468 kts 278°
2026-05-06 17:05 22.17455 51.17889 37773 ft 468 kts 278°
2026-05-06 17:05 22.18659 51.10995 37769 ft 467 kts 278°
2026-05-06 17:06 22.19860 51.04102 37769 ft 467 kts 278°
2026-05-06 17:06 22.21058 50.97210 37770 ft 467 kts 278°
2026-05-06 17:07 22.22254 50.90315 37769 ft 468 kts 278°
2026-05-06 17:07 22.23447 50.83420 37784 ft 467 kts 278°
2026-05-06 17:08 22.24635 50.76528 37783 ft 467 kts 278°
2026-05-06 17:08 22.25819 50.69642 37776 ft 466 kts 278°
2026-05-06 17:09 22.26999 50.62764 37774 ft 466 kts 278°
2026-05-06 17:09 22.28176 50.55885 37777 ft 466 kts 278°
2026-05-06 17:10 22.29350 50.49005 37769 ft 466 kts 278°
2026-05-06 17:10 22.30522 50.42121 37766 ft 466 kts 278°
2026-05-06 17:11 22.31690 50.35238 37774 ft 466 kts 278°
2026-05-06 17:11 22.32858 50.28345 37790 ft 466 kts 278°
2026-05-06 17:12 22.34021 50.21454 37789 ft 466 kts 278°
2026-05-06 17:12 22.34986 50.15724 37780 ft 466 kts 277°
2026-05-06 17:13 22.36331 50.07718 37780 ft 466 kts 277°
2026-05-06 17:13 22.37485 50.00830 37779 ft 466 kts 277°
2026-05-06 17:14 22.38635 49.93943 37768 ft 466 kts 277°
2026-05-06 17:14 22.39784 49.87049 37785 ft 466 kts 277°
2026-05-06 17:15 22.40736 49.81323 37775 ft 466 kts 277°
2026-05-06 17:15 22.42071 49.73265 37779 ft 466 kts 277°
2026-05-06 17:16 22.43019 49.67529 37773 ft 466 kts 277°
2026-05-06 17:16 22.44158 49.60622 37784 ft 467 kts 277°
2026-05-06 17:17 22.45294 49.53711 37777 ft 467 kts 277°
2026-05-06 17:17 22.46429 49.46791 37775 ft 468 kts 277°
2026-05-06 17:18 22.47562 49.39864 37777 ft 468 kts 277°
2026-05-06 17:18 22.48692 49.32935 37784 ft 468 kts 277°
2026-05-06 17:19 22.49819 49.26003 37782 ft 468 kts 277°
2026-05-06 17:19 22.50943 49.19074 37794 ft 468 kts 277°
2026-05-06 17:20 22.52062 49.12151 37793 ft 467 kts 277°
2026-05-06 17:20 22.53177 49.05237 37774 ft 466 kts 277°
2026-05-06 17:21 22.54287 48.98332 37778 ft 466 kts 277°
2026-05-06 17:21 22.55394 48.91429 37777 ft 466 kts 277°
2026-05-06 17:22 22.56498 48.84525 37781 ft 465 kts 277°
2026-05-06 17:22 22.57590 48.77672 37781 ft 466 kts 277°
2026-05-06 17:23 22.58688 48.70769 37804 ft 465 kts 277°
2026-05-06 17:23 22.59781 48.63871 37803 ft 465 kts 277°
2026-05-06 17:24 22.60871 48.56982 37783 ft 464 kts 277°
2026-05-06 17:24 22.61956 48.50098 37787 ft 464 kts 277°
2026-05-06 17:25 22.63036 48.43225 37788 ft 463 kts 277°
2026-05-06 17:25 22.64113 48.36355 37787 ft 463 kts 277°
2026-05-06 17:26 22.65186 48.29485 37774 ft 463 kts 276°
2026-05-06 17:26 22.66256 48.22623 37780 ft 462 kts 276°
2026-05-06 17:27 22.67325 48.15757 37791 ft 462 kts 276°
2026-05-06 17:27 22.68391 48.08895 37789 ft 462 kts 276°
2026-05-06 17:28 22.69332 48.02024 37779 ft 460 kts 272°
2026-05-06 17:28 22.69880 47.95132 37778 ft 460 kts 272°
2026-05-06 17:29 22.70473 47.88238 37784 ft 460 kts 272°
2026-05-06 17:29 22.71054 47.81342 37783 ft 460 kts 272°
2026-05-06 17:30 22.71627 47.74438 37809 ft 460 kts 272°
2026-05-06 17:30 22.72193 47.67579 37804 ft 460 kts 272°
2026-05-06 17:31 22.72760 47.60670 37806 ft 460 kts 272°
2026-05-06 17:31 22.73325 47.53763 37818 ft 460 kts 272°
2026-05-06 17:32 22.73884 47.46869 37819 ft 459 kts 272°
2026-05-06 17:32 22.74441 47.39978 37816 ft 459 kts 272°
2026-05-06 17:33 22.74994 47.33100 37820 ft 458 kts 272°
2026-05-06 17:33 22.75543 47.26227 37829 ft 458 kts 272°
2026-05-06 17:34 22.76088 47.19363 37831 ft 457 kts 272°
2026-05-06 17:34 22.76634 47.12503 37840 ft 457 kts 272°
2026-05-06 17:35 22.77178 47.05654 37857 ft 456 kts 272°
2026-05-06 17:35 22.77719 46.98814 37854 ft 455 kts 272°
2026-05-06 17:36 22.78522 46.88580 37862 ft 454 kts 271°
2026-05-06 17:36 22.79051 46.81777 37862 ft 453 kts 271°
2026-05-06 17:37 22.79577 46.74984 37861 ft 452 kts 271°
2026-05-06 17:37 22.80099 46.68203 37864 ft 451 kts 271°
2026-05-06 17:38 22.80615 46.61470 37868 ft 451 kts 271°
2026-05-06 17:38 22.81131 46.54695 37885 ft 451 kts 271°
2026-05-06 17:39 22.81645 46.47914 37915 ft 451 kts 271°
2026-05-06 17:39 22.82156 46.41132 37910 ft 451 kts 271°
2026-05-06 17:40 22.82661 46.34363 37918 ft 450 kts 271°
2026-05-06 17:40 22.83161 46.27595 37912 ft 450 kts 271°
2026-05-06 17:41 22.83659 46.20835 37911 ft 450 kts 271°
2026-05-06 17:41 22.84153 46.14078 37909 ft 449 kts 271°
2026-05-06 17:42 22.84644 46.07330 37899 ft 449 kts 271°
2026-05-06 17:42 22.85133 46.00581 37893 ft 449 kts 271°
2026-05-06 17:43 22.85618 45.93833 37900 ft 449 kts 271°
2026-05-06 17:43 22.86100 45.87092 37910 ft 448 kts 271°
2026-05-06 17:44 22.86578 45.80359 37898 ft 448 kts 271°
2026-05-06 17:44 22.87050 45.73680 37891 ft 447 kts 271°
2026-05-06 17:45 22.87515 45.67053 37895 ft 447 kts 271°
2026-05-06 17:45 22.87984 45.60345 37889 ft 446 kts 271°
2026-05-06 17:46 22.88450 45.53628 37883 ft 446 kts 271°
2026-05-06 17:46 22.88913 45.46913 37897 ft 446 kts 271°
2026-05-06 17:47 22.89372 45.40203 37895 ft 446 kts 271°
2026-05-06 17:47 22.89830 45.33485 37909 ft 446 kts 270°
2026-05-06 17:48 22.90284 45.26775 37906 ft 446 kts 270°
2026-05-06 17:48 22.90734 45.20075 37898 ft 445 kts 270°
2026-05-06 17:49 22.91181 45.13389 37894 ft 444 kts 270°
2026-05-06 17:49 22.91626 45.06709 37886 ft 444 kts 270°
2026-05-06 17:50 22.92062 45.00082 37886 ft 443 kts 270°
2026-05-06 17:50 22.92497 44.93412 37885 ft 443 kts 270°
2026-05-06 17:51 22.92931 44.86743 37886 ft 443 kts 270°
2026-05-06 17:51 22.93361 44.80072 37887 ft 443 kts 270°
2026-05-06 17:52 22.93789 44.73401 37891 ft 443 kts 270°
2026-05-06 17:52 22.94510 44.66745 37890 ft 448 kts 277°
2026-05-06 17:53 22.96310 44.60228 37906 ft 453 kts 283°
2026-05-06 17:53 22.98318 44.53753 37901 ft 453 kts 283°
2026-05-06 17:54 23.00310 44.47274 37899 ft 452 kts 283°
2026-05-06 17:54 23.02302 44.40799 37915 ft 452 kts 283°
2026-05-06 17:55 23.04289 44.34335 37904 ft 451 kts 283°
2026-05-06 17:55 23.06270 44.27878 37901 ft 450 kts 283°
2026-05-06 17:56 23.08245 44.21435 37902 ft 449 kts 283°
2026-05-06 17:56 23.10214 44.14997 37895 ft 449 kts 282°
2026-05-06 17:57 23.12164 44.08611 37897 ft 448 kts 282°
2026-05-06 17:57 23.14124 44.02183 37911 ft 448 kts 282°
2026-05-06 17:58 23.16080 43.95758 37900 ft 448 kts 282°
2026-05-06 17:58 23.18032 43.89334 37908 ft 448 kts 282°
2026-05-06 17:59 23.19982 43.82908 37926 ft 447 kts 282°
2026-05-06 17:59 23.21928 43.76485 37920 ft 447 kts 282°
2026-05-06 18:00 23.23869 43.70066 37926 ft 447 kts 282°
2026-05-06 18:00 23.25807 43.63647 37935 ft 447 kts 282°
2026-05-06 18:01 23.27742 43.57234 37961 ft 446 kts 282°
2026-05-06 18:01 23.29667 43.50840 37966 ft 444 kts 282°
2026-05-06 18:02 23.31584 43.44461 37947 ft 443 kts 282°
2026-05-06 18:02 23.33480 43.38140 37958 ft 442 kts 282°
2026-05-06 18:03 23.35380 43.31799 37955 ft 440 kts 282°
2026-05-06 18:03 23.37274 43.25462 37957 ft 440 kts 282°
2026-05-06 18:04 23.39166 43.19128 37961 ft 440 kts 281°
2026-05-06 18:04 23.41053 43.12796 37969 ft 440 kts 281°
2026-05-06 18:05 23.42934 43.06461 37976 ft 440 kts 281°
2026-05-06 18:05 23.44812 43.00123 37982 ft 440 kts 281°
2026-05-06 18:06 23.46691 42.93773 37979 ft 440 kts 281°
2026-05-06 18:06 23.48566 42.87426 37979 ft 440 kts 281°
2026-05-06 18:07 23.50123 42.82145 37978 ft 441 kts 281°
2026-05-06 18:07 23.52300 42.74753 37980 ft 441 kts 281°
2026-05-06 18:08 23.53870 42.69425 37980 ft 441 kts 281°
2026-05-06 18:08 23.55744 42.63063 37982 ft 441 kts 281°
2026-05-06 18:09 23.57603 42.56738 37974 ft 441 kts 281°
2026-05-06 18:09 23.59787 42.49291 37972 ft 441 kts 281°
2026-05-06 18:10 23.61337 42.43994 37972 ft 441 kts 281°
2026-05-06 18:10 23.63200 42.37624 37980 ft 441 kts 281°
2026-05-06 18:11 23.65059 42.31253 37974 ft 440 kts 281°
2026-05-06 18:11 23.66911 42.24891 37969 ft 440 kts 281°
2026-05-06 18:12 23.68753 42.18535 37986 ft 439 kts 281°
2026-05-06 18:12 23.70590 42.12184 37972 ft 438 kts 280°
2026-05-06 18:13 23.72422 42.05843 37962 ft 437 kts 280°
2026-05-06 18:13 23.74247 41.99518 37954 ft 437 kts 280°
2026-05-06 18:14 23.76059 41.93246 37964 ft 436 kts 280°
2026-05-06 18:14 23.77881 41.86940 37960 ft 435 kts 280°
2026-05-06 18:15 23.79695 41.80648 37952 ft 434 kts 280°
2026-05-06 18:15 23.81506 41.74354 37960 ft 434 kts 280°
2026-05-06 18:16 23.83310 41.68067 37964 ft 434 kts 280°
2026-05-06 18:16 23.85111 41.61782 37962 ft 433 kts 279°
2026-05-06 18:17 23.86907 41.55500 37972 ft 433 kts 279°
2026-05-06 18:17 23.88697 41.49208 37960 ft 433 kts 279°
2026-05-06 18:18 23.90481 41.42917 37966 ft 433 kts 279°
2026-05-06 18:18 23.92263 41.36624 37969 ft 433 kts 279°
2026-05-06 18:19 23.94047 41.30328 37958 ft 434 kts 279°
2026-05-06 18:19 23.95832 41.24033 37954 ft 434 kts 279°
2026-05-06 18:20 23.97614 41.17734 37954 ft 434 kts 279°
2026-05-06 18:20 23.99394 41.11433 37961 ft 434 kts 279°
2026-05-06 18:21 24.01158 41.05172 37959 ft 434 kts 279°
2026-05-06 18:21 24.02933 40.98866 37953 ft 434 kts 279°
2026-05-06 18:22 24.04706 40.92555 37951 ft 434 kts 279°
2026-05-06 18:22 24.06475 40.86246 37950 ft 434 kts 279°
2026-05-06 18:23 24.08242 40.79937 37951 ft 434 kts 279°
2026-05-06 18:23 24.10006 40.73626 37945 ft 433 kts 279°
2026-05-06 18:24 24.11765 40.67322 37943 ft 433 kts 279°
2026-05-06 18:24 24.13522 40.61015 37937 ft 433 kts 279°
2026-05-06 18:25 24.15275 40.54709 37935 ft 433 kts 279°
2026-05-06 18:25 24.17563 40.48538 37932 ft 444 kts 289°
2026-05-06 18:26 24.20469 40.42553 37930 ft 445 kts 289°
2026-05-06 18:26 24.23325 40.36585 37931 ft 445 kts 289°
2026-05-06 18:27 24.26199 40.30576 37931 ft 445 kts 289°
2026-05-06 18:27 24.29074 40.24562 37945 ft 446 kts 289°
2026-05-06 18:28 24.31953 40.18534 37933 ft 446 kts 289°
2026-05-06 18:28 24.34830 40.12502 37938 ft 446 kts 289°
2026-05-06 18:29 24.37706 40.06467 37935 ft 447 kts 289°
2026-05-06 18:29 24.40579 40.00427 37932 ft 447 kts 289°
2026-05-06 18:30 24.43458 39.94368 37942 ft 448 kts 289°
2026-05-06 18:30 24.46336 39.88306 37942 ft 448 kts 289°
2026-05-06 18:31 24.49212 39.82237 37947 ft 448 kts 289°
2026-05-06 18:31 24.52086 39.76164 37948 ft 448 kts 289°
2026-05-06 18:32 24.55702 39.70453 37944 ft 466 kts 304°
2026-05-06 18:32 24.60720 39.65758 37941 ft 481 kts 315°
2026-05-06 18:33 24.66143 39.61457 37931 ft 480 kts 314°
2026-05-06 18:33 24.71547 39.57130 37944 ft 480 kts 314°
2026-05-06 18:34 24.76918 39.52830 37937 ft 481 kts 315°
2026-05-06 18:34 24.82326 39.48501 37931 ft 481 kts 315°
2026-05-06 18:35 24.87734 39.44166 37936 ft 481 kts 314°
2026-05-06 18:35 24.93143 39.39825 37948 ft 481 kts 314°
2026-05-06 18:36 24.98550 39.35480 37934 ft 481 kts 314°
2026-05-06 18:36 25.03953 39.31135 37961 ft 481 kts 314°
2026-05-06 18:37 25.09350 39.26791 37951 ft 480 kts 314°
2026-05-06 18:37 25.14733 39.22451 37948 ft 479 kts 314°
2026-05-06 18:38 25.19994 39.18006 37949 ft 470 kts 308°
2026-05-06 18:38 25.24302 39.12752 37943 ft 455 kts 297°
2026-05-06 18:39 25.27742 39.06950 37945 ft 451 kts 295°
2026-05-06 18:40 25.32865 38.98224 37943 ft 451 kts 295°
2026-05-06 18:40 25.36269 38.92399 37932 ft 451 kts 295°
2026-05-06 18:41 25.39650 38.86607 37901 ft 451 kts 295°
2026-05-06 18:41 25.43051 38.80771 37908 ft 452 kts 295°
2026-05-06 18:42 25.46453 38.74927 37900 ft 452 kts 295°
2026-05-06 18:42 25.49858 38.69069 37902 ft 453 kts 295°
2026-05-06 18:43 25.53267 38.63196 37890 ft 454 kts 295°
2026-05-06 18:43 25.56679 38.57311 37900 ft 455 kts 295°
2026-05-06 18:44 25.60095 38.51413 37897 ft 455 kts 295°
2026-05-06 18:44 25.63512 38.45504 37888 ft 456 kts 295°
2026-05-06 18:45 25.66928 38.39593 37890 ft 456 kts 295°
2026-05-06 18:45 25.70343 38.33672 37897 ft 456 kts 295°
2026-05-06 18:46 25.73758 38.27745 37889 ft 456 kts 295°
2026-05-06 18:46 25.77166 38.21821 37890 ft 456 kts 295°
2026-05-06 18:47 25.80575 38.15891 37898 ft 455 kts 295°
2026-05-06 18:47 25.83980 38.09958 37897 ft 456 kts 295°
2026-05-06 18:48 25.87378 38.04030 37892 ft 454 kts 295°
2026-05-06 18:48 25.90764 37.98117 37883 ft 453 kts 295°
2026-05-06 18:49 25.94121 37.92246 37892 ft 453 kts 294°
2026-05-06 18:49 25.97515 37.86296 37925 ft 452 kts 294°
2026-05-06 18:50 26.00152 37.80148 37926 ft 438 kts 282°
2026-05-06 18:50 26.01499 37.73641 37925 ft 429 kts 272°
2026-05-06 18:51 26.02376 37.67079 37942 ft 428 kts 273°
2026-05-06 18:51 26.03274 37.60540 37927 ft 428 kts 273°
2026-05-06 18:52 26.04161 37.54015 37918 ft 427 kts 273°
2026-05-06 18:52 26.05039 37.47487 37910 ft 426 kts 273°
2026-05-06 18:53 26.05913 37.40951 37908 ft 428 kts 273°
2026-05-06 18:53 26.06781 37.34402 37914 ft 428 kts 273°
2026-05-06 18:54 26.07658 37.27843 37913 ft 429 kts 273°
2026-05-06 18:54 26.08531 37.21266 37908 ft 431 kts 273°
2026-05-06 18:55 26.09404 37.14666 37910 ft 432 kts 273°
2026-05-06 18:55 26.10275 37.08055 37913 ft 432 kts 273°
2026-05-06 18:56 26.11144 37.01434 37907 ft 432 kts 273°
2026-05-06 18:56 26.12010 36.94808 37899 ft 433 kts 273°
2026-05-06 18:57 26.12873 36.88180 37882 ft 432 kts 273°
2026-05-06 18:57 26.13732 36.81558 37889 ft 432 kts 273°
2026-05-06 18:58 26.14587 36.74942 37889 ft 432 kts 273°
2026-05-06 18:58 26.15440 36.68313 37886 ft 433 kts 273°
2026-05-06 18:59 26.16291 36.61679 37888 ft 433 kts 273°
2026-05-06 18:59 26.17141 36.55044 37889 ft 433 kts 274°
2026-05-06 19:00 26.18576 36.49644 37890 ft 446 kts 289°
2026-05-06 19:00 26.20746 36.45699 37888 ft 459 kts 301°
2026-05-06 19:00 26.22181 36.43887 37886 ft 465 kts 307°
2026-05-06 19:01 26.26707 36.38732 37886 ft 465 kts 306°
2026-05-06 19:01 26.31205 36.33543 37888 ft 466 kts 306°
2026-05-06 19:02 26.35703 36.28350 37889 ft 466 kts 306°
2026-05-06 19:02 26.40203 36.23150 37899 ft 466 kts 306°
2026-05-06 19:03 26.44701 36.17946 37903 ft 466 kts 306°
2026-05-06 19:03 26.49198 36.12739 37900 ft 465 kts 306°
2026-05-06 19:04 26.53686 36.07536 37897 ft 465 kts 306°
2026-05-06 19:04 26.58171 36.02330 37898 ft 465 kts 306°
2026-05-06 19:05 26.62651 35.97122 37895 ft 465 kts 306°
2026-05-06 19:05 26.67126 35.91915 37904 ft 465 kts 306°
2026-05-06 19:06 26.71605 35.86696 37902 ft 465 kts 306°
2026-05-06 19:06 26.76083 35.81473 37904 ft 465 kts 306°
2026-05-06 19:07 26.80528 35.76283 37907 ft 465 kts 306°
2026-05-06 19:07 26.85002 35.71051 37907 ft 465 kts 306°
2026-05-06 19:08 26.89477 35.65814 37912 ft 465 kts 306°
2026-05-06 19:08 26.93949 35.60573 37912 ft 465 kts 306°
2026-05-06 19:09 26.98418 35.55329 37912 ft 465 kts 306°
2026-05-06 19:09 27.02885 35.50081 37929 ft 465 kts 306°
2026-05-06 19:10 27.07355 35.44822 37921 ft 466 kts 307°
2026-05-06 19:10 27.11826 35.39557 37909 ft 466 kts 307°
2026-05-06 19:11 27.16294 35.34289 37918 ft 466 kts 307°
2026-05-06 19:11 27.20757 35.29019 37922 ft 465 kts 307°
2026-05-06 19:12 27.25218 35.23745 37926 ft 465 kts 307°
2026-05-06 19:12 27.29675 35.18470 37918 ft 465 kts 307°
2026-05-06 19:13 27.34132 35.13189 37920 ft 465 kts 307°
2026-05-06 19:13 27.38584 35.07907 37921 ft 465 kts 307°
2026-05-06 19:14 27.43037 35.02615 37922 ft 466 kts 307°
2026-05-06 19:14 27.47492 34.97316 37923 ft 466 kts 307°
2026-05-06 19:15 27.51975 34.92048 37914 ft 468 kts 310°
2026-05-06 19:15 27.56741 34.87044 37913 ft 468 kts 310°
2026-05-06 19:16 27.61493 34.82027 37910 ft 468 kts 310°
2026-05-06 19:16 27.66208 34.77038 37907 ft 468 kts 310°
2026-05-06 19:17 27.70954 34.72010 37922 ft 468 kts 310°
2026-05-06 19:17 27.75688 34.66989 37922 ft 468 kts 310°
2026-05-06 19:18 27.80431 34.61952 37933 ft 468 kts 310°
2026-05-06 19:18 27.85171 34.56914 37945 ft 468 kts 310°
2026-05-06 19:19 27.89906 34.51873 37955 ft 468 kts 310°
2026-05-06 19:19 27.94638 34.46829 37984 ft 467 kts 310°
2026-05-06 19:20 27.99354 34.41769 37967 ft 465 kts 308°
2026-05-06 19:20 28.03488 34.36231 37960 ft 460 kts 303°
2026-05-06 19:21 28.07545 34.30625 37964 ft 460 kts 303°
2026-05-06 19:21 28.11600 34.25021 37957 ft 460 kts 303°
2026-05-06 19:22 28.15655 34.19403 37992 ft 461 kts 303°
2026-05-06 19:22 28.19707 34.13776 37970 ft 460 kts 303°
2026-05-06 19:23 28.23750 34.08155 37993 ft 460 kts 303°
2026-05-06 19:23 28.27786 34.02536 37985 ft 459 kts 303°
2026-05-06 19:24 28.31810 33.96927 37980 ft 458 kts 303°
2026-05-06 19:24 28.35829 33.91316 37986 ft 458 kts 303°
2026-05-06 19:25 28.39853 33.85693 38001 ft 459 kts 303°
2026-05-06 19:25 28.43873 33.80068 38000 ft 458 kts 303°
2026-05-06 19:26 28.47863 33.74477 37967 ft 458 kts 303°
2026-05-06 19:26 28.51869 33.68857 37982 ft 458 kts 303°
2026-05-06 19:27 28.55880 33.63220 38003 ft 460 kts 304°
2026-05-06 19:27 28.59913 33.57568 38008 ft 460 kts 304°
2026-05-06 19:28 28.63945 33.51906 38010 ft 460 kts 304°
2026-05-06 19:28 28.67964 33.46239 38008 ft 460 kts 304°
2026-05-06 19:29 28.71977 33.40572 38018 ft 459 kts 304°
2026-05-06 19:29 28.75984 33.34907 38012 ft 459 kts 303°
2026-05-06 19:30 28.79978 33.29253 38009 ft 458 kts 303°
2026-05-06 19:30 28.83967 33.23598 38009 ft 457 kts 303°
2026-05-06 19:31 28.87951 33.17942 38017 ft 457 kts 303°
2026-05-06 19:31 28.93922 33.09449 38012 ft 457 kts 303°
2026-05-06 19:32 28.97902 33.03780 38024 ft 458 kts 303°
2026-05-06 19:32 29.01884 32.98101 38024 ft 458 kts 303°
2026-05-06 19:33 29.05861 32.92420 38020 ft 458 kts 303°
2026-05-06 19:33 29.09813 32.86767 38043 ft 458 kts 303°
2026-05-06 19:34 29.13792 32.81068 38032 ft 458 kts 303°
2026-05-06 19:34 29.17766 32.75370 38039 ft 458 kts 303°
2026-05-06 19:35 29.21738 32.69665 38027 ft 458 kts 303°
2026-05-06 19:35 29.25704 32.63960 38030 ft 458 kts 303°
2026-05-06 19:36 29.29666 32.58251 38048 ft 457 kts 303°
2026-05-06 19:36 29.33598 32.52525 38053 ft 457 kts 303°
2026-05-06 19:37 29.37525 32.46792 38037 ft 458 kts 303°
2026-05-06 19:37 29.40794 32.42022 38040 ft 458 kts 303°
2026-05-06 19:38 29.45388 32.35308 38047 ft 458 kts 303°
2026-05-06 19:38 29.49320 32.29554 38043 ft 458 kts 303°
2026-05-06 19:39 29.53252 32.23792 38048 ft 459 kts 303°
2026-05-06 19:39 29.57156 32.18062 38048 ft 458 kts 303°
2026-05-06 19:40 29.61084 32.12290 38048 ft 458 kts 303°
2026-05-06 19:40 29.65010 32.06512 38059 ft 459 kts 303°
2026-05-06 19:41 29.68939 32.00720 38045 ft 460 kts 303°
2026-05-06 19:41 29.72873 31.94914 38049 ft 460 kts 303°
2026-05-06 19:42 29.76808 31.89098 38046 ft 461 kts 303°
2026-05-06 19:42 29.80712 31.83233 38050 ft 461 kts 302°
2026-05-06 19:43 29.84501 31.77276 38048 ft 462 kts 302°
2026-05-06 19:43 29.88358 31.71353 38049 ft 464 kts 308°
2026-05-06 19:44 29.90735 31.68808 38051 ft 472 kts 319°
2026-05-06 19:44 29.93548 31.66810 38048 ft 479 kts 329°
2026-05-06 19:44 29.96699 31.65458 38051 ft 488 kts 341°
2026-05-06 19:44 30.00058 31.64759 38051 ft 492 kts 346°
2026-05-06 19:45 30.06826 31.63569 38048 ft 492 kts 346°
2026-05-06 19:45 30.13593 31.62351 38095 ft 493 kts 346°
2026-05-06 19:46 30.20381 31.61130 38103 ft 493 kts 346°
2026-05-06 19:46 30.27155 31.59912 38080 ft 492 kts 346°
2026-05-06 19:47 30.33923 31.58693 38105 ft 492 kts 346°
2026-05-06 19:47 30.40684 31.57473 38101 ft 491 kts 346°
2026-05-06 19:48 30.46297 31.56460 38093 ft 491 kts 346°
2026-05-06 19:48 30.53043 31.55240 38088 ft 490 kts 346°
2026-05-06 19:49 30.59777 31.54020 38113 ft 490 kts 346°
2026-05-06 19:49 30.66505 31.52801 38100 ft 489 kts 346°
2026-05-06 19:50 30.73213 31.51582 38090 ft 488 kts 346°
2026-05-06 19:50 30.79911 31.50364 38082 ft 487 kts 346°
2026-05-06 19:51 30.86594 31.49143 38101 ft 486 kts 347°
2026-05-06 19:51 30.93267 31.47923 38097 ft 485 kts 347°
2026-05-06 19:52 30.99929 31.46704 38095 ft 484 kts 347°
2026-05-06 19:52 31.06580 31.45484 38089 ft 484 kts 347°
2026-05-06 19:53 31.13232 31.44263 38094 ft 484 kts 347°
2026-05-06 19:53 31.19876 31.43042 38095 ft 484 kts 347°
2026-05-06 19:54 31.26533 31.41815 38202 ft 486 kts 347°
2026-05-06 19:54 31.29876 31.41197 38639 ft 486 kts 347°
2026-05-06 19:54 31.33215 31.40578 38998 ft 486 kts 346°
2026-05-06 19:55 31.36549 31.39961 39411 ft 484 kts 346°
2026-05-06 19:55 31.39879 31.39343 39716 ft 485 kts 346°
2026-05-06 19:55 31.43212 31.38724 39989 ft 486 kts 346°
2026-05-06 19:55 31.46562 31.38100 40094 ft 491 kts 346°
2026-05-06 19:56 31.53178 31.36873 40100 ft 481 kts 346°
2026-05-06 19:56 31.72877 31.34643 40101 ft 486 kts 350°
2026-05-06 19:57 31.99827 31.31817 40098 ft 486 kts 350°
2026-05-06 19:57 32.26778 31.28937 40097 ft 485 kts 350°
2026-05-06 19:58 32.53621 31.26010 40093 ft 481 kts 347°
2026-05-06 19:58 32.65952 31.20807 40101 ft 469 kts 330°
2026-05-06 19:58 32.77666 31.14005 40096 ft 468 kts 330°
2026-05-06 19:59 33.01002 31.00307 40095 ft 467 kts 330°
2026-05-06 19:59 33.23712 30.85557 40098 ft 463 kts 326°
2026-05-06 20:00 33.46021 30.70121 40103 ft 462 kts 326°
2026-05-06 20:00 33.68206 30.54676 40098 ft 460 kts 326°
2026-05-06 20:01 33.90279 30.39216 40096 ft 458 kts 326°
2026-05-06 20:01 34.12270 30.23719 40094 ft 457 kts 326°
2026-05-06 20:02 34.34204 30.08168 40102 ft 457 kts 326°
2026-05-06 20:02 34.54068 29.89633 40094 ft 451 kts 313°
2026-05-06 20:03 34.71674 29.67900 40100 ft 452 kts 312°
2026-05-06 20:03 34.89241 29.46038 40105 ft 451 kts 313°
2026-05-06 20:04 35.07872 29.25660 40093 ft 452 kts 321°
2026-05-06 20:04 35.27995 29.07223 40099 ft 452 kts 321°
2026-05-06 20:05 35.48095 28.88705 40089 ft 452 kts 321°
2026-05-06 20:05 35.68136 28.70124 40089 ft 451 kts 321°
2026-05-06 20:06 35.88121 28.51476 40098 ft 450 kts 321°
2026-05-06 20:06 36.07929 28.32871 40063 ft 450 kts 321°
2026-05-06 20:07 36.27881 28.14009 40075 ft 452 kts 321°
2026-05-06 20:07 36.46762 27.93467 40081 ft 450 kts 316°
2026-05-06 20:08 36.65016 27.72282 40069 ft 448 kts 316°
2026-05-06 20:08 36.83189 27.51047 40079 ft 448 kts 316°
2026-05-06 20:09 37.01359 27.29668 40103 ft 449 kts 316°
2026-05-06 20:09 37.19507 27.08167 40096 ft 449 kts 316°
2026-05-06 20:10 37.37585 26.86600 40094 ft 447 kts 316°
2026-05-06 20:10 37.56367 26.66043 40097 ft 448 kts 318°
2026-05-06 20:11 37.75139 26.45651 40091 ft 449 kts 318°
2026-05-06 20:11 37.94041 26.24998 40091 ft 449 kts 318°
2026-05-06 20:12 38.12897 26.04202 40089 ft 448 kts 318°
2026-05-06 20:12 38.32074 25.83877 40077 ft 449 kts 321°
2026-05-06 20:13 38.51926 25.64493 40087 ft 449 kts 321°
2026-05-06 20:13 38.71769 25.44981 40078 ft 450 kts 321°
2026-05-06 20:14 38.91590 25.25350 40064 ft 450 kts 321°
2026-05-06 20:14 39.11396 25.05592 40070 ft 451 kts 321°
2026-05-06 20:15 39.31193 24.85697 40066 ft 451 kts 321°
2026-05-06 20:15 39.50967 24.65678 40070 ft 451 kts 320°
2026-05-06 20:16 39.70688 24.45565 40060 ft 451 kts 320°
2026-05-06 20:16 39.90378 24.25331 40060 ft 451 kts 320°
2026-05-06 20:17 40.10160 24.04850 40058 ft 447 kts 320°
2026-05-06 20:17 40.29838 23.84317 40059 ft 452 kts 320°
2026-05-06 20:18 40.49523 23.63621 40090 ft 457 kts 319°
2026-05-06 20:18 40.69328 23.42636 40072 ft 455 kts 319°
2026-05-06 20:19 40.88924 23.21709 40048 ft 452 kts 319°
2026-05-06 20:19 41.08293 23.00844 40051 ft 452 kts 317°
2026-05-06 20:20 41.24779 22.75750 40058 ft 451 kts 309°
2026-05-06 20:20 41.41682 22.51003 40056 ft 451 kts 311°
2026-05-06 20:21 41.58490 22.26171 40028 ft 450 kts 311°
2026-05-06 20:21 41.75178 22.01308 40011 ft 448 kts 310°
2026-05-06 20:22 41.91745 21.76417 40043 ft 446 kts 310°
2026-05-06 20:22 42.08137 21.51579 40007 ft 442 kts 310°
2026-05-06 20:23 42.24214 21.26587 40041 ft 442 kts 309°
2026-05-06 20:23 42.40121 21.01209 40086 ft 442 kts 309°
2026-05-06 20:24 42.55918 20.75803 40080 ft 440 kts 308°
2026-05-06 20:24 42.71566 20.50410 40040 ft 437 kts 308°
2026-05-06 20:25 42.85809 20.24041 40047 ft 435 kts 293°
2026-05-06 20:25 42.96194 19.94111 40074 ft 437 kts 294°
2026-05-06 20:26 43.06547 19.63865 40065 ft 436 kts 293°
2026-05-06 20:26 43.16714 19.33830 40058 ft 435 kts 293°
2026-05-06 20:27 43.26772 19.03793 40058 ft 437 kts 292°
2026-05-06 20:27 43.36829 18.73405 40063 ft 437 kts 292°
2026-05-06 20:28 43.46780 18.43009 40062 ft 436 kts 291°
2026-05-06 20:28 43.56675 18.12428 40047 ft 438 kts 291°
2026-05-06 20:29 43.66503 17.81700 40046 ft 437 kts 291°
2026-05-06 20:29 43.75907 17.50686 40038 ft 436 kts 282°
2026-05-06 20:30 43.84711 17.01639 40051 ft 439 kts 281°
2026-05-06 20:31 43.90498 16.68707 40033 ft 439 kts 281°
2026-05-06 20:31 43.96189 16.35671 40009 ft 440 kts 281°
2026-05-06 20:32 44.01789 16.02586 39997 ft 442 kts 280°
2026-05-06 20:32 44.07346 15.69155 39987 ft 446 kts 279°
2026-05-06 20:33 44.12830 15.35473 39995 ft 447 kts 279°
2026-05-06 20:33 44.18240 15.01576 39995 ft 449 kts 279°
2026-05-06 20:34 44.23569 14.67489 39979 ft 450 kts 279°
2026-05-06 20:34 44.28800 14.33288 39976 ft 451 kts 279°
2026-05-06 20:35 44.33938 13.99003 39956 ft 451 kts 278°
2026-05-06 20:35 44.36473 13.81806 40194 ft 455 kts 278°
2026-05-06 20:35 44.39011 13.64385 40952 ft 456 kts 278°
2026-05-06 20:36 44.39166 13.29982 40943 ft 446 kts 257°
2026-05-06 20:36 44.34122 12.96016 40927 ft 446 kts 257°
2026-05-06 20:37 44.28935 12.62093 40937 ft 447 kts 256°
2026-05-06 20:37 44.23652 12.28256 40965 ft 446 kts 256°
2026-05-06 20:38 44.18271 11.94493 40929 ft 446 kts 256°
2026-05-06 20:38 44.12787 11.60743 40964 ft 447 kts 255°
2026-05-06 20:39 44.08111 11.32503 40978 ft 447 kts 255°
2026-05-06 20:39 44.03763 10.99030 40989 ft 450 kts 271°
2026-05-06 20:40 44.04845 10.90323 40980 ft 455 kts 282°
2026-05-06 20:40 44.06691 10.81890 40987 ft 456 kts 282°
2026-05-06 20:41 44.08500 10.73456 40992 ft 455 kts 282°
2026-05-06 20:41 44.10302 10.65003 40983 ft 455 kts 282°
2026-05-06 20:42 44.12096 10.56555 41000 ft 456 kts 282°
2026-05-06 20:42 44.12981 10.52331 40862 ft 452 kts 282°
2026-05-06 20:42 44.13993 10.48181 40283 ft 457 kts 289°
2026-05-06 20:42 44.15550 10.44271 39527 ft 469 kts 299°
2026-05-06 20:43 44.17568 10.40636 38667 ft 478 kts 302°
2026-05-06 20:43 44.19680 10.37021 37606 ft 483 kts 302°
2026-05-06 20:43 44.21816 10.33401 36638 ft 485 kts 302°
2026-05-06 20:43 44.23957 10.29767 35709 ft 485 kts 302°
2026-05-06 20:44 44.26098 10.26118 34770 ft 486 kts 301°
2026-05-06 20:44 44.28232 10.22467 33894 ft 485 kts 301°
2026-05-06 20:44 44.30363 10.18813 32741 ft 486 kts 301°
2026-05-06 20:44 44.33664 10.13132 31561 ft 478 kts 301°
2026-05-06 20:45 44.41839 9.98976 28516 ft 457 kts 302°
2026-05-06 20:45 44.49641 9.85440 25535 ft 437 kts 302°
2026-05-06 20:45 44.57103 9.72422 22741 ft 421 kts 302°
2026-05-06 20:45 44.64308 9.59799 19790 ft 406 kts 303°
2026-05-06 20:46 44.66250 9.56393 18981 ft 403 kts 303°
2026-05-06 20:46 44.67992 9.53338 18329 ft 398 kts 304°
2026-05-06 20:46 44.69695 9.50344 17526 ft 396 kts 304°
2026-05-06 20:46 44.71422 9.47308 16903 ft 387 kts 304°
2026-05-06 20:47 44.73066 9.44411 16223 ft 382 kts 304°
2026-05-06 20:47 44.74717 9.41496 15521 ft 379 kts 304°
2026-05-06 20:47 44.76348 9.38613 14889 ft 374 kts 303°
2026-05-06 20:47 44.77960 9.35761 14215 ft 371 kts 303°
2026-05-06 20:48 44.79558 9.32931 13481 ft 369 kts 304°
2026-05-06 20:48 44.81139 9.30127 12859 ft 362 kts 303°
2026-05-06 20:48 44.82698 9.27359 12088 ft 361 kts 305°
2026-05-06 20:48 44.84254 9.24591 11376 ft 359 kts 305°
2026-05-06 20:49 44.85788 9.21863 10738 ft 353 kts 305°
2026-05-06 20:49 44.87297 9.19176 10353 ft 342 kts 305°
2026-05-06 20:49 44.88733 9.16625 10134 ft 322 kts 305°
2026-05-06 20:49 44.90083 9.14219 9935 ft 304 kts 305°
2026-05-06 20:50 44.91353 9.11949 9715 ft 287 kts 305°
2026-05-06 20:50 44.92581 9.09753 9335 ft 283 kts 305°
2026-05-06 20:50 44.93794 9.07579 8900 ft 282 kts 305°
2026-05-06 20:50 44.95006 9.05406 8502 ft 281 kts 304°
2026-05-06 20:51 44.98458 8.99197 7360 ft 277 kts 304°
2026-05-06 20:51 45.03176 8.90717 5744 ft 273 kts 304°
2026-05-06 20:51 45.05411 8.88360 5033 ft 289 kts 339°
2026-05-06 20:51 45.07376 8.87771 4801 ft 288 kts 348°
2026-05-06 20:52 45.09363 8.87328 4757 ft 290 kts 349°
2026-05-06 20:52 45.11351 8.86872 4690 ft 290 kts 348°
2026-05-06 20:52 45.13337 8.86381 4660 ft 289 kts 347°
2026-05-06 20:52 45.15305 8.85864 4635 ft 285 kts 348°
2026-05-06 20:53 45.17234 8.85348 4584 ft 278 kts 348°
2026-05-06 20:53 45.19123 8.84837 4417 ft 275 kts 348°
2026-05-06 20:53 45.21008 8.84324 4372 ft 277 kts 349°
2026-05-06 20:53 45.22930 8.84049 4368 ft 278 kts 354°
2026-05-06 20:54 45.24836 8.83748 4369 ft 273 kts 350°
2026-05-06 20:54 45.26683 8.83312 4301 ft 264 kts 348°
2026-05-06 20:54 45.28452 8.82839 4190 ft 253 kts 348°
2026-05-06 20:54 45.30148 8.82377 4108 ft 243 kts 348°
2026-05-06 20:55 45.31778 8.81931 4035 ft 233 kts 348°
2026-05-06 20:55 45.33341 8.81503 4023 ft 226 kts 348°
2026-05-06 20:55 45.34861 8.81085 4021 ft 218 kts 348°
2026-05-06 20:55 45.36336 8.80681 4029 ft 213 kts 348°
2026-05-06 20:56 45.37792 8.80280 3975 ft 213 kts 348°
2026-05-06 20:56 45.39222 8.79892 3622 ft 209 kts 348°
2026-05-06 20:56 45.40654 8.79498 3441 ft 211 kts 348°
2026-05-06 20:56 45.42074 8.79110 3289 ft 203 kts 348°
2026-05-06 20:57 45.43449 8.78732 3025 ft 200 kts 348°
2026-05-06 20:57 45.44797 8.78362 3015 ft 195 kts 349°
2026-05-06 20:57 45.46127 8.77998 2995 ft 194 kts 349°
2026-05-06 20:57 45.47454 8.77632 3003 ft 194 kts 349°
2026-05-06 20:58 45.48785 8.77268 3009 ft 195 kts 349°
2026-05-06 20:58 45.50083 8.76911 2989 ft 187 kts 349°
2026-05-06 20:58 45.51333 8.76568 2808 ft 175 kts 349°
2026-05-06 20:58 45.52437 8.76263 2571 ft 155 kts 350°
2026-05-06 20:59 45.53463 8.75977 2379 ft 144 kts 351°
2026-05-06 20:59 45.54428 8.75711 2182 ft 140 kts 351°
2026-05-06 20:59 45.55372 8.75451 2004 ft 140 kts 352°
2026-05-06 20:59 45.56321 8.75188 1802 ft 139 kts 351°
2026-05-06 21:00 45.57265 8.74930 1652 ft 137 kts 352°
2026-05-06 21:00 45.58202 8.74671 1426 ft 135 kts 353°
2026-05-06 21:00 45.59124 8.74429 1243 ft 135 kts 351°
2026-05-06 21:00 45.60039 8.74185 1080 ft 134 kts 350°
2026-05-06 21:01 45.60953 8.73926 905 ft 134 kts 349°
2026-05-06 21:01 45.61854 8.73670 753 ft 131 kts 349°
2026-05-06 21:01 45.62621 8.73461 744 ft 82 kts 349°
2026-05-06 21:01 45.62991 8.73360 739 ft 44 kts 349°
2026-05-06 21:02 45.63262 8.73284 743 ft 37 kts 349°
2026-05-06 21:02 45.63497 8.73217 744 ft 31 kts 348°
2026-05-06 21:02 45.63681 8.73106 742 ft 27 kts 323°
2026-05-06 21:02 45.63810 8.72925 743 ft 25 kts 305°
2026-05-06 21:03 45.63905 8.72720 743 ft 24 kts 304°
2026-05-06 21:03 45.63873 8.72595 744 ft 16 kts 182°
2026-05-06 21:03 45.63748 8.72623 744 ft 20 kts 168°
2026-05-06 21:03 45.63601 8.72663 744 ft 23 kts 169°
2026-05-06 21:04 45.63434 8.72697 745 ft 24 kts 191°
2026-05-06 21:04 45.63284 8.72572 742 ft 26 kts 214°
2026-05-06 21:04 45.63133 8.72424 746 ft 27 kts 214°
2026-05-06 21:04 45.63028 8.72223 746 ft 26 kts 259°
2026-05-06 21:05 45.62995 8.71981 744 ft 12 kts 259°
2026-05-06 21:05 45.62978 8.71848 744 ft 15 kts 259°
2026-05-06 21:05 45.62965 8.71746 744 ft 8 kts 259°
2026-05-06 21:05 45.62979 8.71666 744 ft 10 kts 315°
2026-05-06 21:06 45.63015 8.71625 742 ft 2 kts 325°
2026-05-06 21:06 45.63030 8.71611 742 ft 1 kts 327°
2026-05-06 21:06 45.63037 8.71605 742 ft 0 kts 327°